JBU543 KEWR-KPBI

Flight info

Callsign JBU543
Flight time N/A
Altitude 36000
Route ELVAE NECCK WHITE Q409 CRPLR EARZZ Q131 WAALT Y289 DULEE CLMNT2
Aircraft A320/M-SDE3FGHIRWY/LB1

Departure

Time 2026-05-03 20:43
Airport Newark Liberty International Airport (KEWR)

Arrival

Time N/A
Airport Palm Beach International Airport (KPBI)
Time Latitude Longitude Altitude Speed Heading
2026-05-03 20:15 40.68560 -74.17961 20 ft 0 kts 360°
2026-05-03 20:31 40.68557 -74.17961 19 ft 3 kts 359°
2026-05-03 20:31 40.68536 -74.17961 21 ft 3 kts 358°
2026-05-03 20:31 40.68515 -74.17960 20 ft 3 kts 358°
2026-05-03 20:31 40.68497 -74.17959 20 ft 3 kts
2026-05-03 20:32 40.68484 -74.17965 21 ft 3 kts 75°
2026-05-03 20:32 40.68480 -74.17992 22 ft 3 kts 81°
2026-05-03 20:32 40.68477 -74.18017 23 ft 3 kts 81°
2026-05-03 20:32 40.68475 -74.18030 19 ft 0 kts 81°
2026-05-03 20:36 40.68475 -74.18029 19 ft 1 kts 81°
2026-05-03 20:36 40.68478 -74.18004 22 ft 6 kts 81°
2026-05-03 20:36 40.68493 -74.17914 21 ft 15 kts 72°
2026-05-03 20:37 40.68546 -74.17814 20 ft 12 kts 38°
2026-05-03 20:37 40.68619 -74.17756 21 ft 10 kts 30°
2026-05-03 20:37 40.68648 -74.17701 21 ft 8 kts 113°
2026-05-03 20:37 40.68623 -74.17628 22 ft 10 kts 115°
2026-05-03 20:38 40.68587 -74.17532 23 ft 13 kts 116°
2026-05-03 20:38 40.68561 -74.17459 24 ft 1 kts 99°
2026-05-03 20:38 40.68577 -74.17445 24 ft 10 kts 33°
2026-05-03 20:38 40.68663 -74.17391 26 ft 16 kts 26°
2026-05-03 20:39 40.68786 -74.17312 22 ft 23 kts 26°
2026-05-03 20:39 40.68939 -74.17214 19 ft 26 kts 25°
2026-05-03 20:39 40.69110 -74.17105 17 ft 26 kts 25°
2026-05-03 20:39 40.69278 -74.17003 18 ft 28 kts 23°
2026-05-03 20:40 40.69451 -74.16888 23 ft 28 kts 26°
2026-05-03 20:40 40.69620 -74.16782 20 ft 25 kts 27°
2026-05-03 20:40 40.69760 -74.16691 16 ft 22 kts 25°
2026-05-03 20:40 40.69839 -74.16641 15 ft 1 kts 26°
2026-05-03 20:41 40.69864 -74.16625 15 ft 15 kts 26°
2026-05-03 20:41 40.69915 -74.16593 15 ft 0 kts 25°
2026-05-03 20:41 40.69981 -74.16546 16 ft 13 kts 47°
2026-05-03 20:41 40.69977 -74.16427 13 ft 8 kts 111°
2026-05-03 20:42 40.69925 -74.16437 14 ft 11 kts 216°
2026-05-03 20:42 40.69677 -74.16592 19 ft 72 kts 206°
2026-05-03 20:42 40.69050 -74.16986 20 ft 126 kts 205°
2026-05-03 20:42 40.68134 -74.17571 49 ft 164 kts 202°
2026-05-03 20:43 40.67084 -74.18142 637 ft 161 kts 210°
2026-05-03 20:43 40.66040 -74.18714 1215 ft 166 kts 210°
2026-05-03 20:43 40.64917 -74.19331 1562 ft 185 kts 211°
2026-05-03 20:43 40.63677 -74.20009 1993 ft 200 kts 209°